ギブス彗星

C/2018 A6 ( Gibbs )

English version
Home page
Updated on May 21, 2018

---------------------------------------------------------------------

・ プロフィール

発見日 2018年1月15日
発見光度 19.3等
発見者 A. R. Gibbs (Mount Lemmon)

・ 写真集

・ 軌道要素

Epoch 2019 July 16.0 TT = JDT 2458680.5
T 2019 July 14.22896 TT                                 MPCW
q   3.0178867            (2000.0)            P               Q
n   0.01635240     Peri.  264.52085     -0.16533127     +0.93043982
a  15.3726379      Node   340.38593     +0.22106436     -0.28819177
e   0.8036845      Incl.   76.96110     -0.96114313     -0.22633437
P  60.27
From 127 observations 2018 Jan. 15-Mar. 24, mean residual 0".5.

・ 星図

・ 光度変化

        m1 = 8.5 + 5 logΔ + 10.0 log r

---------------------------------------------------------------------

軌道要素はM.P.E.C. 2018-F152に掲載されたものです。
星図はステラナビゲータ Ver.10 (アストロアーツ) で作成したものです。
光度グラフはComet for Windowsで作成したものです。

---------------------------------------------------------------------

Copyright(C) Seiichi Yoshida (comet@aerith.net). All rights reserved.